�������l�o���
Date,Time,MP-1(��Sv/h),MP-2(��Sv/h),MP-3(��Sv/h),MP-4(��Sv/h),MP-5(��Sv/h),MP-6(��Sv/h),MP-7(��Sv/h),MP-8(��Sv/h),����,����(m/s),���J
2020/04/25,00:00,0.670,0.952,0.638,1.167,0.826,0.391,0.680,0.647,�k�k��,0.8,��
2020/04/25,00:10,0.671,0.952,0.637,1.167,0.826,0.392,0.679,0.647,���k��,1.9,��
2020/04/25,00:20,0.672,0.951,0.638,1.166,0.825,0.391,0.679,0.647,�k��,3.8,��
2020/04/25,00:30,0.670,0.949,0.637,1.166,0.826,0.391,0.679,0.648,�k��,3.9,��
2020/04/25,00:40,0.670,0.952,0.637,1.164,0.824,0.391,0.679,0.646,�k��,4.0,��
2020/04/25,00:50,0.670,0.953,0.637,1.165,0.828,0.391,0.678,0.646,�k�k��,3.8,��
2020/04/25,01:00,0.670,0.951,0.638,1.167,0.825,0.390,0.679,0.647,�k�k��,4.1,��
2020/04/25,01:10,0.669,0.949,0.637,1.166,0.825,0.390,0.680,0.647,�k��,3.4,��
2020/04/25,01:20,0.670,0.952,0.636,1.166,0.824,0.389,0.681,0.648,�k��,4.4,��
2020/04/25,01:30,0.666,0.953,0.636,1.167,0.827,0.390,0.679,0.647,�k��,3.8,��
2020/04/25,01:40,0.667,0.953,0.635,1.164,0.825,0.390,0.681,0.647,�k��,4.2,��
2020/04/25,01:50,0.667,0.952,0.636,1.166,0.827,0.390,0.680,0.647,�k��,4.2,��
2020/04/25,02:00,0.667,0.951,0.636,1.166,0.824,0.389,0.678,0.647,�k�k��,4.3,��
2020/04/25,02:10,0.668,0.952,0.635,1.165,0.824,0.390,0.680,0.647,�k�k��,4.6,��
2020/04/25,02:20,0.668,0.951,0.635,1.166,0.826,0.389,0.678,0.646,�k�k��,3.8,��
2020/04/25,02:30,0.668,0.950,0.636,1.165,0.825,0.390,0.680,0.646,�k��,3.1,��
2020/04/25,02:40,0.669,0.952,0.636,1.168,0.825,0.390,0.678,0.646,���k��,2.9,��
2020/04/25,02:50,0.668,0.950,0.636,1.165,0.824,0.391,0.680,0.648,���k��,2.3,��
2020/04/25,03:00,0.668,0.951,0.636,1.166,0.824,0.390,0.679,0.646,�k��,1.7,��
2020/04/25,03:10,0.666,0.952,0.635,1.167,0.826,0.388,0.678,0.646,�k��,1.5,��
2020/04/25,03:20,0.667,0.950,0.635,1.166,0.825,0.391,0.678,0.646,���k��,1.4,��
2020/04/25,03:30,0.668,0.952,0.636,1.167,0.825,0.390,0.678,0.647,���쐼,0.6,��
2020/04/25,03:40,0.667,0.951,0.636,1.168,0.825,0.389,0.679,0.647,���쐼,2.6,��
2020/04/25,03:50,0.668,0.952,0.636,1.165,0.825,0.389,0.679,0.648,�쐼,2.0,��
2020/04/25,04:00,0.666,0.952,0.636,1.168,0.827,0.390,0.679,0.647,���쐼,2.6,��
2020/04/25,04:10,0.669,0.952,0.635,1.167,0.826,0.390,0.679,0.646,���쐼,1.2,��
2020/04/25,04:20,0.669,0.951,0.635,1.167,0.825,0.390,0.677,0.648,���쐼,1.7,��
2020/04/25,04:30,0.668,0.952,0.635,1.166,0.826,0.390,0.680,0.647,�쐼,1.7,��
2020/04/25,04:40,0.668,0.951,0.635,1.168,0.826,0.390,0.679,0.646,���k��,2.3,��
2020/04/25,04:50,0.667,0.953,0.635,1.169,0.826,0.390,0.678,0.646,�k��,5.2,��
2020/04/25,05:00,0.669,0.954,0.636,1.168,0.827,0.390,0.679,0.645,���k��,5.3,��
2020/04/25,05:10,0.666,0.954,0.636,1.167,0.825,0.390,0.680,0.645,���k��,5.8,��
2020/04/25,05:20,0.669,0.954,0.635,1.168,0.826,0.391,0.679,0.646,���k��,6.8,��
2020/04/25,05:30,0.668,0.953,0.636,1.167,0.825,0.390,0.679,0.647,���k��,4.8,��
2020/04/25,05:40,0.669,0.953,0.636,1.169,0.826,0.389,0.678,0.648,���k��,4.4,��
2020/04/25,05:50,0.668,0.953,0.638,1.169,0.826,0.388,0.679,0.647,��,4.1,��
2020/04/25,06:00,0.669,0.953,0.635,1.167,0.827,0.389,0.680,0.647,��,3.6,��
2020/04/25,06:10,0.668,0.953,0.636,1.168,0.826,0.390,0.679,0.648,��,3.1,��
2020/04/25,06:20,0.668,0.954,0.637,1.167,0.826,0.389,0.681,0.646,��,3.1,��
2020/04/25,06:30,0.669,0.954,0.636,1.170,0.823,0.390,0.679,0.649,��,3.2,��
2020/04/25,06:40,0.670,0.955,0.637,1.170,0.826,0.391,0.681,0.646,��,2.6,��
2020/04/25,06:50,0.670,0.954,0.637,1.171,0.826,0.392,0.682,0.647,��,3.2,��
2020/04/25,07:00,0.670,0.955,0.636,1.170,0.828,0.391,0.681,0.648,��,2.3,��
2020/04/25,07:10,0.671,0.955,0.638,1.169,0.827,0.392,0.679,0.648,�쐼,2.0,��
2020/04/25,07:20,0.671,0.957,0.638,1.169,0.827,0.391,0.681,0.647,��,2.5,��
2020/04/25,07:30,0.671,0.956,0.637,1.172,0.827,0.389,0.681,0.647,��쓌,2.2,��
2020/04/25,07:40,0.672,0.957,0.641,1.172,0.830,0.389,0.681,0.648,��쓌,3.9,��
2020/04/25,07:50,0.672,0.957,0.638,1.171,0.828,0.390,0.681,0.649,��쓌,3.0,��
2020/04/25,08:00,0.673,0.957,0.638,1.171,0.830,0.390,0.681,0.648,��쓌,4.2,��
2020/04/25,08:10,0.672,0.956,0.638,1.170,0.830,0.390,0.682,0.647,��쓌,4.4,��
2020/04/25,08:20,0.672,0.959,0.640,1.173,0.831,0.390,0.681,0.647,�쓌,4.1,��
2020/04/25,08:30,0.673,0.962,0.640,1.171,0.830,0.389,0.681,0.647,�쓌,4.3,��
2020/04/25,08:40,0.672,0.958,0.640,1.172,0.833,0.390,0.682,0.648,��쓌,5.1,��
2020/04/25,08:50,0.674,0.962,0.639,1.174,0.833,0.391,0.681,0.649,��쓌,5.9,��
2020/04/25,09:00,0.674,0.960,0.639,1.173,0.834,0.391,0.680,0.646,��쓌,5.6,��
2020/04/25,09:10,0.675,0.959,0.640,1.170,0.834,0.391,0.680,0.646,��쓌,6.7,��
2020/04/25,09:20,0.675,0.960,0.641,1.174,0.833,0.391,0.681,0.646,��쓌,6.8,��
2020/04/25,09:30,0.675,0.960,0.641,1.173,0.835,0.393,0.682,0.648,��쓌,6.3,��
2020/04/25,09:40,0.676,0.959,0.641,1.173,0.834,0.392,0.680,0.645,��쓌,7.6,��
2020/04/25,09:50,0.677,0.965,0.643,1.171,0.834,0.391,0.682,0.647,��쓌,8.6,��
2020/04/25,10:00,0.678,0.965,0.641,1.174,0.837,0.392,0.682,0.647,��쓌,9.8,��
2020/04/25,10:10,0.677,0.962,0.645,1.176,0.835,0.394,0.683,0.646,��쓌,9.6,��
2020/04/25,10:20,0.677,0.965,0.643,1.175,0.836,0.392,0.682,0.648,��쓌,11.3,��
2020/04/25,10:30,0.676,0.966,0.644,1.175,0.836,0.392,0.682,0.648,��쓌,10.2,��
2020/04/25,10:40,0.677,0.966,0.642,1.174,0.837,0.392,0.683,0.648,��쓌,12.1,��
2020/04/25,10:50,0.678,0.965,0.644,1.178,0.837,0.392,0.683,0.646,��쓌,11.6,��
2020/04/25,11:00,0.679,0.969,0.643,1.174,0.837,0.393,0.681,0.648,��쓌,12.4,��
2020/04/25,11:10,0.678,0.967,0.641,1.176,0.836,0.393,0.684,0.648,��쓌,11.9,��
2020/04/25,11:20,0.677,0.965,0.644,1.178,0.838,0.392,0.684,0.648,��쓌,11.4,��
2020/04/25,11:30,0.679,0.968,0.644,1.178,0.839,0.394,0.683,0.648,��쓌,9.0,��
2020/04/25,11:40,0.677,0.969,0.645,1.176,0.839,0.393,0.685,0.650,��,9.8,��
2020/04/25,11:50,0.680,0.971,0.643,1.176,0.842,0.393,0.683,0.648,��,10.8,��
2020/04/25,12:00,0.680,0.973,0.644,1.177,0.839,0.394,0.684,0.648,��,9.8,��
2020/04/25,12:10,0.677,0.971,0.646,1.175,0.842,0.394,0.685,0.649,��,12.5,��
2020/04/25,12:20,0.679,0.972,0.644,1.175,0.841,0.393,0.684,0.650,��쓌,11.7,��
2020/04/25,12:30,0.681,0.972,0.645,1.174,0.842,0.394,0.684,0.650,��쓌,11.0,��
2020/04/25,12:40,0.679,0.976,0.645,1.176,0.842,0.394,0.685,0.649,��쓌,8.5,��
2020/04/25,12:50,0.680,0.973,0.646,1.179,0.842,0.394,0.685,0.649,��,9.2,��
2020/04/25,13:00,0.678,0.973,0.645,1.180,0.844,0.394,0.686,0.649,��,10.2,��
2020/04/25,13:10,0.682,0.973,0.646,1.181,0.842,0.395,0.684,0.650,��,11.8,��
2020/04/25,13:20,0.679,0.973,0.646,1.179,0.843,0.395,0.683,0.649,��,13.3,��
2020/04/25,13:30,0.681,0.971,0.647,1.181,0.844,0.395,0.685,0.651,��,12.4,��
2020/04/25,13:40,0.683,0.972,0.646,1.183,0.844,0.396,0.686,0.650,��,10.8,��
2020/04/25,13:50,0.681,0.974,0.645,1.182,0.844,0.396,0.685,0.651,��,12.1,��
2020/04/25,14:00,0.681,0.975,0.647,1.182,0.846,0.395,0.684,0.650,��,12.4,��
2020/04/25,14:10,0.683,0.975,0.645,1.182,0.845,0.395,0.684,0.649,��,9.6,��
2020/04/25,14:20,0.684,0.975,0.648,1.182,0.847,0.395,0.684,0.651,��,10.2,��
2020/04/25,14:30,0.683,0.977,0.646,1.183,0.846,0.395,0.686,0.651,��,9.9,��
2020/04/25,14:40,0.683,0.975,0.648,1.182,0.846,0.395,0.685,0.650,��,13.3,��
2020/04/25,14:50,0.683,0.977,0.647,1.184,0.846,0.395,0.687,0.650,��,12.5,��
2020/04/25,15:00,0.683,0.978,0.648,1.181,0.845,0.394,0.685,0.649,��,13.0,��
2020/04/25,15:10,0.682,0.979,0.648,1.179,0.846,0.395,0.685,0.651,��,12.7,��
2020/04/25,15:20,0.682,0.978,0.647,1.181,0.845,0.395,0.686,0.650,��,12.7,��
2020/04/25,15:30,0.684,0.982,0.648,1.181,0.846,0.395,0.686,0.647,��,12.7,��
2020/04/25,15:40,0.683,0.979,0.646,1.180,0.845,0.396,0.686,0.652,��,12.7,��
2020/04/25,15:50,0.685,0.981,0.646,1.181,0.846,0.398,0.685,0.651,��,10.7,��
2020/04/25,16:00,0.684,0.978,0.647,1.182,0.845,0.398,0.685,0.650,��,13.3,��
2020/04/25,16:10,0.683,0.980,0.647,1.179,0.848,0.397,0.687,0.649,��,11.9,��
2020/04/25,16:20,0.683,0.981,0.649,1.183,0.846,0.397,0.685,0.651,��,9.8,��
2020/04/25,16:30,0.683,0.984,0.648,1.182,0.847,0.397,0.687,0.649,��,9.8,��
2020/04/25,16:40,0.685,0.984,0.648,1.182,0.846,0.399,0.686,0.651,��,9.1,��
2020/04/25,16:50,0.684,0.982,0.647,1.182,0.848,0.398,0.683,0.650,��,7.9,��
2020/04/25,17:00,0.683,0.984,0.649,1.180,0.848,0.397,0.684,0.651,��,9.0,��
2020/04/25,17:10,0.684,0.984,0.648,1.183,0.845,0.397,0.686,0.650,��,8.4,��
2020/04/25,17:20,0.685,0.984,0.649,1.179,0.847,0.396,0.686,0.652,��,9.5,��
2020/04/25,17:30,0.683,0.984,0.649,1.183,0.847,0.397,0.687,0.652,��쐼,7.4,��
2020/04/25,17:40,0.684,0.985,0.650,1.183,0.845,0.398,0.683,0.651,��쐼,8.6,��
2020/04/25,17:50,0.686,0.983,0.648,1.182,0.847,0.396,0.684,0.655,��,9.4,��
2020/04/25,18:00,0.684,0.986,0.649,1.186,0.845,0.398,0.684,0.655,��,8.8,��
2020/04/25,18:10,0.686,0.984,0.648,1.187,0.847,0.399,0.683,0.652,��,8.2,��
2020/04/25,18:20,0.688,0.983,0.650,1.186,0.848,0.397,0.686,0.653,��,8.5,��
2020/04/25,18:30,0.687,0.984,0.652,1.188,0.848,0.396,0.686,0.652,��,10.2,��
2020/04/25,18:40,0.687,0.986,0.651,1.187,0.849,0.398,0.684,0.654,��,9.9,��
2020/04/25,18:50,0.685,0.985,0.652,1.187,0.850,0.398,0.685,0.653,��,10.3,��
2020/04/25,19:00,0.684,0.986,0.650,1.186,0.850,0.398,0.686,0.655,��,9.0,��
2020/04/25,19:10,0.686,0.985,0.650,1.187,0.850,0.399,0.686,0.654,��,9.5,��
2020/04/25,19:20,0.685,0.985,0.649,1.186,0.849,0.397,0.687,0.653,��,11.3,��
2020/04/25,19:30,0.687,0.986,0.651,1.186,0.850,0.397,0.689,0.653,��,11.8,��
2020/04/25,19:40,0.685,0.985,0.650,1.187,0.850,0.397,0.688,0.653,��,10.2,��
2020/04/25,19:50,0.685,0.983,0.650,1.185,0.850,0.397,0.686,0.654,��,9.6,��
2020/04/25,20:00,0.687,0.986,0.649,1.185,0.852,0.396,0.688,0.652,��,8.9,��
2020/04/25,20:10,0.686,0.983,0.651,1.186,0.853,0.396,0.686,0.653,��,9.0,��
2020/04/25,20:20,0.686,0.985,0.651,1.187,0.850,0.396,0.689,0.652,��,8.8,��
2020/04/25,20:30,0.685,0.985,0.652,1.186,0.851,0.397,0.689,0.653,��,9.4,��
2020/04/25,20:40,0.688,0.985,0.649,1.187,0.849,0.398,0.688,0.652,��,8.9,��
2020/04/25,20:50,0.688,0.986,0.653,1.185,0.849,0.398,0.687,0.652,��,8.7,��
2020/04/25,21:00,0.685,0.987,0.651,1.185,0.850,0.397,0.688,0.653,��,8.3,��
2020/04/25,21:10,0.685,0.986,0.651,1.185,0.850,0.396,0.688,0.652,��,8.6,��
2020/04/25,21:20,0.685,0.985,0.651,1.187,0.850,0.397,0.687,0.653,��,6.6,��
2020/04/25,21:30,0.685,0.987,0.650,1.187,0.848,0.398,0.688,0.653,��,6.7,��
2020/04/25,21:40,0.684,0.986,0.651,1.186,0.849,0.395,0.688,0.652,��,6.7,��
2020/04/25,21:50,0.685,0.987,0.650,1.188,0.849,0.397,0.689,0.655,��,8.3,��
2020/04/25,22:00,0.687,0.984,0.648,1.189,0.849,0.397,0.688,0.652,��,10.2,��
2020/04/25,22:10,0.686,0.985,0.651,1.188,0.849,0.397,0.689,0.653,��,10.2,��
2020/04/25,22:20,0.688,0.986,0.652,1.189,0.850,0.397,0.688,0.653,��,8.8,��
2020/04/25,22:30,0.686,0.986,0.651,1.187,0.849,0.397,0.686,0.654,��,9.2,��
2020/04/25,22:40,0.685,0.987,0.650,1.189,0.848,0.396,0.689,0.652,��,9.1,��
2020/04/25,22:50,0.686,0.985,0.650,1.188,0.850,0.396,0.688,0.654,��,9.8,��
2020/04/25,23:00,0.685,0.986,0.651,1.187,0.849,0.394,0.688,0.654,��,10.6,��
2020/04/25,23:10,0.685,0.985,0.651,1.186,0.851,0.397,0.688,0.652,��,10.5,��
2020/04/25,23:20,0.686,0.985,0.652,1.186,0.851,0.399,0.687,0.652,��,8.4,��
2020/04/25,23:30,0.687,0.986,0.651,1.186,0.850,0.398,0.686,0.652,��쐼,8.7,��
2020/04/25,23:40,0.685,0.987,0.650,1.187,0.849,0.398,0.688,0.654,��,7.3,��
2020/04/25,23:50,0.685,0.985,0.652,1.186,0.850,0.397,0.687,0.654,��쐼,6.9,��
